SCP
0 0 0 0 0 0 0 0 0 0 0 0 -0 0 0 0 0 0 0 0 0 0 0 0 0 0 0 0 0 0 0 0 0 0 0 0 0 0 0 0 0 0 0
0 0 0 0 0 0 0 0 0 0 0 0 0 0 0 0 0 0 0 0 0 0 0 0 0 0 0 0 0 0 0 0 0 0 0 0 0 0 0 0 0 0 0
0 0 0 0 0 0 0 0 0 0 0 0 0 0 0 0 0 0 0 0 0 0 0 0 0 0 0 0 0 0 0 0 0 0 0 0 0 0 0 0 0 0 0
0 0 0 0 0 0 0 0 0 0 0 0 0 0 -0 0 0 0 0 0 0 0 0 0 0 0 0 0 0 0 0 0 0 0 0 0 0 0 0 0 0 0 0
0 0 0 0 0 0 0 0 0 0 0 0 0 -0 -0 -0 0 0 0 0 0 0 0 0 0 0 0 0 0 0 0 0 0 0 0 0 0 0 0 0 0 0 0
0 0 0 0 0 0 0 0 0 0 0 0 0 -0 -0 -0 0 0 0 0 0 0 0 0 0 0 0 0 0 0 0 0 0 0 0 0 0 0 0 0 0 0 0
0 0 0 0 0 0 0 0 0 0 0 0 0 -0 -0 -0 -0 0 0 0 0 0 0 0 0 0 0 0 0 0 0 0 0 0 0 0 0 0 0 0 0 0 0
0 0 0 0 0 0 0 0 0 0 0 0 0 -0 -0 -0 -0 -0 0 0 0 0 0 0 0 0 0 0 0 0 0 0 0 0 0 0 0 0 0 0 0 0 0
0 0 0 0 0 0 0 0 0 0 0 0 0 -0 -0 -0 -0 0 0 0 0 0 0 0 0 0 0 0 0 0 0 0 0 0 0 0 0 0 0 0 0 0 0
0 0 0 0 0 0 0 0 0 0 0 0 0 0 -0 -0 0 0 0 0 0 0 0 0 0 0 0 0 0 0 0 0 0 0 0 0 0 0 0 0 0 0 0
0 0 0 0 0 0 0 0 0 0 0 0 0 0 0 0 0 0 0 0 0 0 0 0 0 0 0 0 0 0 0 0 0 0 0 0 0 0 0 0 0 0 0
0 0 0 0 0 0 0 0 0 0 0 0 0 0 0 0 0 0 0 0 0 0 0 0 0 0 0 0 0 0 0 0 0 0 0 0 0 0 0 0 0 0 0
0 0 0 0 0 0 0 0 0 0 0 0 0 0 0 0 0 0 0 0 0 0 0 0 0 0 0 0 0 0 0 0 0 0 0 0 0 0 0 0 0 0 0
0 0 0 0 0 0 0 0 0 0 0 0 0 0 0 0 0 0 0 0 0 0 0 0 0 0 0 0 0 0 0 0 0 0 0 0 0 0 0 0 0 0 0
0 0 0 0 0 0 0 0 0 0 0 0 0 0 0 0 0 0 -0 -0 -0 0 0 0 0 0 0 0 0 0 0 0 0 0 0 0 0 0 0 0 0 0 0
0 0 0 0 0 0 0 0 0 -0 -0 0 0 0 0 0 0 0 -0 -0 -0 -0 0 0 0 0 0 0 0 0 0 0 0 0 0 0 0 0 0 0 0 0 0
0 0 0 0 0 0 0 -0 -0 -0 -0 0 0 0 0 0 0 -0 -0 -0 -0 -0 0 0 0 0 0 0 0 0 0 0 0 0 0 0 0 0 0 0 0 0 0
0 0 0 0 0 -0 0 0 -0 -0 -0 -0 0 0 0 0 0 -0 -0 -0 0 0 0 0 0 0 0 0 0 0 0 0 0 0 0 0 0 0 0 0 0 0 0
0 0 0 -0 -0 -0 0 0 0 -0 -0 -0 0 0 0 0 0 0 0 0 0 0 0 0 0 0 0 0 0 0 0 0 0 0 0 0 0 0 0 0 0 0 0
0 0 0 -0 -0 0 0 0 0 0 -0 0 0 0 0 0 0 0 0 0 0 0 0 0 0 0 0 0 0 0 0 0 0 0 0 0 0 0 0 0 0 0 0
0 0 0 -0 -0 0 0 0 0 0 0 0 0 0 0 0 0 0 0 0 0 0 0 0 0 0 0 0 0 0 0 0 0 0 0 0 0 0 0 0 0 0 0
0 0 0 0 0 0 0 0 0 0 0 0 0 0 0 0 0 0 0 0 0 0 0 0 0 0 0 0 0 0 0 0 0 0 0 0 0 0 0 0 0 0 0
0 0 0 0 0 0 0 0 0 0 0 0 0 0 0 0 0 0 0 0 0 0 0 0 0 0 0 0 0 0 0 0 0 0 0 0 0 0 0 0 0 0 0
0 0 0 0 0 0 0 0 0 0 0 0 0 0 0 0 0 0 0 0 0 0 0 0 0 0 0 0 0 0 0 0 0 0 0 0 0 0 0 0 0 0 0
0 0 0 0 0 0 0 0 0 0 0 0 0 0 0 0 0 0 0 0 0 0 0 0 0 0 0 0 0 0 0 0 0 0 0 0 0 0 0 0 0 0 0
0 0 0 0 0 0 0 0 0 0 0 0 0 0 0 0 0 0 0 0 0 0 0 0 0 0 0 0 0 0 0 0 0 0 0 0 0 0 0 0 0 0 0
Wind_Speed
1 1 2 3 3 3 3 2 2 1 2 2 2 2 2 2 2 2 2 2 2 1 1 1 0 1 0 1 1 1 0 1 1 1 2 2 1 1 1 1 0 1 1
2 2 2 2 2 2 2 1 1 1 1 1 0 0 1 1 2 2 2 2 2 1 1 1 1 0 0 1 1 0 0 1 0 1 0 1 2 2 2 1 0 1 1
5 3 2 1 1 1 1 1 1 0 0 1 1 1 2 2 2 3 2 2 2 1 1 1 1 1 0 1 1 1 1 1 1 1 1 1 2 2 2 1 1 0 1
4 4 3 2 2 1 1 1 1 0 0 0 1 1 0 1 2 2 3 3 2 2 1 1 1 1 1 1 2 1 1 2 2 2 1 1 1 1 1 2 1 1 1
4 4 4 3 2 1 1 1 1 0 0 0 1 1 1 2 2 2 3 3 2 2 2 1 1 1 1 2 2 2 1 2 2 2 1 1 1 1 2 2 2 2 2
3 3 3 3 1 1 1 1 1 1 1 1 1 2 2 2 2 3 2 3 2 2 2 2 2 2 2 2 2 2 2 2 2 2 2 2 2 2 2 2 3 3 2
3 2 2 2 2 2 2 1 2 2 2 2 2 2 3 3 4 3 3 3 3 3 3 3 2 2 2 3 2 2 3 3 3 3 3 2 3 2 2 2 2 3 2
2 3 3 3 2 3 2 2 3 3 3 2 3 3 3 2 3 4 3 3 3 4 4 3 3 3 3 3 3 2 3 2 3 4 4 3 3 2 3 3 2 2 2
2 2 2 2 2 2 3 3 3 3 3 3 3 3 3 3 4 4 4 3 4 4 4 4 3 3 3 3 3 3 3 3 3 4 4 3 3 3 3 2 3 3 3
2 2 2 2 2 2 2 2 3 3 3 3 4 3 4 4 4 4 4 4 4 5 4 4 3 3 3 3 3 3 3 3 3 3 4 4 3 3 3 2 2 3 3
3 2 2 2 2 2 2 2 2 3 3 4 4 4 4 4 4 4 5 5 4 5 4 4 4 4 4 4 4 4 4 4 4 4 4 5 4 3 3 3 3 2 3
2 2 2 2 2 2 2 3 3 3 4 4 4 5 5 5 5 5 5 5 5 5 5 5 5 5 5 4 5 5 4 5 5 5 4 5 4 4 4 3 4 3 3
2 2 2 2 3 3 3 3 3 4 4 4 4 5 5 5 6 6 5 5 5 5 5 5 5 5 5 5 6 5 5 6 6 5 5 5 5 5 4 4 4 4 3
2 2 3 3 4 4 4 4 4 4 4 4 4 5 5 6 6 6 5 6 6 6 5 6 6 6 6 6 6 6 6 6 6 6 6 6 6 6 6 5 6 4 4
3 3 4 4 4 4 4 4 4 4 4 4 5 5 5 5 5 5 5 5 6 6 6 6 6 6 6 6 6 6 6 6 6 6 6 6 7 8 7 6 6 5 5
5 5 5 5 5 5 5 5 5 5 4 5 6 6 5 5 5 5 5 6 6 6 6 7 7 7 6 7 8 7 6 6 7 7 6 7 8 9 10 10 10 8 7
5 5 5 5 5 5 5 6 5 5 5 5 6 6 5 5 6 6 6 6 6 6 6 7 7 7 8 9 9 9 7 7 7 7 6 6 6 8 7 8 10 10 11
5 5 5 5 5 5 5 5 5 5 5 6 6 6 5 6 6 6 6 6 6 6 6 7 7 7 7 9 9 9 7 7 7 7 7 7 7 7 7 7 8 8 9
5 5 5 5 5 5 5 4 5 5 5 6 6 6 6 6 6 6 6 6 5 6 6 6 6 7 7 9 9 9 5 6 7 7 7 8 8 10 11 8 8 8 8
4 4 4 4 5 5 4 4 5 5 6 7 7 6 6 6 7 7 6 5 5 6 6 6 6 6 7 9 9 9 5 6 6 6 7 9 9 10 11 8 8 9 8
4 4 4 4 5 5 4 5 5 6 7 7 6 6 6 6 6 6 5 5 5 5 5 6 5 6 7 8 9 9 5 5 5 5 5 6 9 10 11 9 8 9 7
4 4 4 5 5 4 4 5 6 6 6 6 6 6 6 5 4 5 4 4 4 5 5 5 5 4 5 7 8 10 9 8 6 6 5 6 9 11 11 9 9 10 8
5 4 4 6 6 5 4 6 7 6 6 6 6 6 5 4 3 4 4 4 4 4 4 4 4 4 4 5 9 10 10 10 7 6 9 10 10 10 8 9 9 7 5
4 4 4 5 6 5 5 5 6 6 5 6 5 5 4 4 3 3 3 3 3 4 4 4 4 4 4 4 4 4 5 7 6 5 7 9 9 8 8 7 5 5 5
4 4 4 5 7 6 6 6 6 5 5 5 5 5 4 4 4 3 3 4 4 4 5 4 4 4 5 6 8 6 5 4 5 4 3 3 4 4 4 4 4 4 4
4 4 5 6 6 6 6 7 6 5 4 5 5 4 3 3 3 4 4 6 6 7 8 8 7 6 8 9 9 9 9 9 7 4 4 4 4 4 4 4 4 4 4
Wind_Direction
209 142 125 114 110 106 109 112 97 63 63 49 34 11 351 340 339 340 352 356 344 0 3 4 330 344 329 292 306 326 313 320 42 47 351 333 326 331 346 350 50 8 7
113 107 100 103 115 123 120 115 111 96 61 49 14 316 308 308 318 315 328 341 342 334 344 350 289 294 333 329 325 328 255 278 62 114 51 333 328 337 337 317 82 21 20
165 162 148 146 121 126 159 168 176 126 43 47 45 24 13 351 347 332 322 325 326 316 308 315 298 277 196 236 285 251 207 228 245 199 171 174 233 295 303 310 304 1 353
169 168 167 172 181 207 197 187 187 137 102 116 116 101 359 303 296 298 299 301 302 305 305 297 300 268 250 247 264 286 261 219 234 251 260 236 196 205 265 289 278 283 283
181 182 185 189 193 204 198 198 191 209 257 216 170 173 270 276 292 294 301 299 294 290 280 285 276 272 260 250 255 273 252 241 241 236 255 262 259 236 220 256 266 266 244
186 194 188 178 185 200 200 196 194 239 251 236 219 205 232 263 282 292 283 296 289 285 268 271 259 257 261 254 247 243 239 244 253 251 234 224 217 220 223 234 248 255 252
179 184 187 197 201 205 214 218 221 246 247 238 240 233 229 236 241 262 258 276 283 281 260 262 253 255 257 261 258 252 249 242 247 248 243 244 246 241 244 243 250 262 268
189 200 205 205 214 221 221 221 233 244 247 244 249 247 238 239 246 253 250 251 263 261 252 246 247 254 256 267 258 259 257 253 242 256 248 247 258 256 246 240 232 253 262
218 223 224 213 215 237 239 225 227 239 247 249 252 253 247 247 252 259 253 250 264 271 257 247 248 257 256 257 258 256 257 256 250 251 249 246 250 253 258 247 221 220 244
239 240 235 228 242 244 253 259 239 236 244 247 245 258 250 247 249 254 256 250 259 267 259 251 249 252 256 256 251 254 257 259 260 258 250 249 250 247 251 239 241 233 234
242 244 251 252 258 272 262 254 264 264 259 253 251 255 255 253 253 253 256 252 252 259 252 248 244 246 250 250 249 250 255 256 264 266 259 251 249 245 247 237 233 239 233
257 257 262 279 284 278 269 257 258 259 264 262 257 255 258 256 252 253 254 255 251 257 251 249 241 245 249 247 248 248 250 248 252 256 260 259 252 249 246 235 236 241 239
287 288 282 275 274 275 269 268 267 268 270 264 269 262 255 253 252 253 253 254 248 254 252 249 241 244 249 250 251 244 244 245 248 247 249 255 246 245 247 240 235 241 252
273 275 281 275 275 280 273 271 274 273 277 275 268 270 261 253 251 253 250 250 245 247 250 248 243 243 249 250 251 251 247 247 251 250 248 249 246 242 241 242 233 235 241
285 284 286 284 286 291 289 281 282 280 278 274 274 271 274 266 258 255 252 248 248 248 250 251 247 244 244 243 248 252 246 246 251 253 250 251 255 256 249 250 234 225 229
279 283 287 290 290 289 291 293 288 287 283 276 275 275 275 278 266 257 257 251 249 247 247 249 245 244 248 259 263 262 247 245 247 252 254 254 252 257 262 261 253 240 230
275 277 278 279 280 281 282 283 283 287 282 277 277 274 273 276 274 261 254 249 245 249 248 246 241 244 250 261 264 264 253 244 244 246 251 259 258 260 253 259 255 249 246
274 276 277 279 279 279 282 284 287 281 276 275 276 279 279 277 278 268 253 249 248 247 248 249 241 244 253 261 264 267 252 246 246 244 243 248 252 249 253 252 245 242 242
275 274 272 276 280 280 282 287 287 286 281 277 278 280 277 271 269 266 261 253 251 253 249 246 241 242 253 258 262 265 243 250 251 251 248 247 247 255 260 254 248 251 251
291 290 292 292 288 286 283 281 283 283 280 279 280 279 272 263 262 263 263 260 254 253 253 253 246 244 250 258 259 259 243 253 256 256 254 254 258 260 258 250 243 246 250
301 302 300 295 290 292 288 283 283 277 280 284 284 280 271 263 261 262 263 260 261 260 254 254 255 249 253 260 261 261 250 248 256 258 255 256 268 268 266 265 250 253 257
310 307 306 305 305 301 292 287 286 290 294 292 289 285 280 271 265 259 263 259 252 256 255 256 264 259 257 258 260 264 266 265 254 258 259 259 266 269 270 270 267 270 270
305 307 304 307 311 309 299 291 295 302 302 299 297 295 293 287 278 263 261 261 248 247 251 250 259 269 266 261 267 268 271 272 265 257 266 274 273 276 272 271 269 264 253
307 308 309 310 312 315 313 302 305 307 303 303 303 303 301 298 294 284 269 261 247 244 250 252 257 266 267 260 257 256 264 268 268 265 268 276 278 276 273 269 258 247 242
308 308 308 307 310 316 318 315 314 313 310 308 308 310 306 304 298 292 278 272 259 250 254 249 247 253 257 260 269 270 262 255 256 271 265 258 258 256 257 257 251 244 242
309 312 310 307 311 317 318 319 320 318 313 313 315 312 310 307 301 300 306 302 292 291 283 278 270 267 268 277 276 280 282 282 279 271 255 256 257 258 259 258 261 253 245